Time,TemperatureF,DewpointF,PressureIn,WindDirection,WindDirectionDegrees,WindSpeedMPH,WindSpeedGustMPH,Humidity,HourlyPrecipIn,Conditions,Clouds,dailyrainin,SoftwareType,DateUTC
2013-07-07 00:01:00,72.0,69.0,-100.00,West,271,1.0,3.0,90,0.00,,,0.00,,2013-07-07 04:01:00,
2013-07-07 00:11:00,75.0,68.0,-100.00,West,280,2.0,4.0,77,0.00,,,0.00,,2013-07-07 04:11:00,
2013-07-07 00:31:00,75.0,68.0,-100.00,NNE,32,4.0,8.0,77,0.00,,,0.00,,2013-07-07 04:31:00,
2013-07-07 00:41:00,75.0,68.0,-100.00,West,280,1.0,4.0,78,0.00,,,0.00,,2013-07-07 04:41:00,
2013-07-07 00:52:00,75.0,68.0,-100.00,West,280,1.0,4.0,78,0.00,,,0.00,,2013-07-07 04:52:00,
2013-07-07 01:01:00,74.0,68.0,-100.00,WNW,294,1.0,2.0,82,0.00,,,0.00,,2013-07-07 05:01:00,
2013-07-07 01:11:00,74.0,68.0,-100.00,WNW,294,1.0,2.0,82,0.00,,,0.00,,2013-07-07 05:11:00,
2013-07-07 01:31:00,75.0,68.0,-100.00,West,278,2.0,5.0,79,0.00,,,0.00,,2013-07-07 05:31:00,
2013-07-07 01:41:00,74.0,68.0,-100.00,West,261,1.0,4.0,81,0.00,,,0.00,,2013-07-07 05:41:00,
2013-07-07 01:51:00,74.0,68.0,-100.00,West,261,1.0,4.0,81,0.00,,,0.00,,2013-07-07 05:51:00,
2013-07-07 02:01:00,73.0,68.0,-100.00,WSW,257,1.0,4.0,86,0.00,,,0.00,,2013-07-07 06:01:00,
2013-07-07 02:11:00,73.0,68.0,-100.00,WSW,257,1.0,4.0,86,0.00,,,0.00,,2013-07-07 06:11:00,
2013-07-07 02:32:00,72.0,68.0,-100.00,SW,233,1.0,2.0,88,0.00,,,0.00,,2013-07-07 06:32:00,
2013-07-07 02:43:00,71.0,68.0,-100.00,SW,236,1.0,3.0,90,0.00,,,0.00,,2013-07-07 06:43:00,
2013-07-07 02:52:00,71.0,68.0,-100.00,SW,236,1.0,3.0,90,0.00,,,0.00,,2013-07-07 06:52:00,
2013-07-07 03:02:00,71.0,68.0,-100.00,SSW,212,1.0,3.0,91,0.00,,,0.00,,2013-07-07 07:02:00,
2013-07-07 03:11:00,71.0,68.0,-100.00,SSW,212,1.0,3.0,91,0.00,,,0.00,,2013-07-07 07:11:00,
2013-07-07 03:33:00,71.0,68.0,-100.00,SSW,202,2.0,4.0,92,0.00,,,0.00,,2013-07-07 07:33:00,
2013-07-07 03:44:00,71.0,68.0,-100.00,WSW,256,0.0,1.0,92,0.00,,,0.00,,2013-07-07 07:44:00,
2013-07-07 03:53:00,71.0,68.0,-100.00,WSW,256,0.0,1.0,92,0.00,,,0.00,,2013-07-07 07:53:00,
2013-07-07 04:03:00,71.0,68.0,-100.00,NNW,335,2.0,4.0,92,0.00,,,0.00,,2013-07-07 08:03:00,
2013-07-07 04:12:00,71.0,68.0,-100.00,NNW,335,2.0,4.0,92,0.00,,,0.00,,2013-07-07 08:12:00,
2013-07-07 04:34:00,70.0,68.0,-100.00,NW,320,0.0,1.0,92,0.00,,,0.00,,2013-07-07 08:34:00,
2013-07-07 04:44:00,70.0,67.0,-100.00,NNE,18,1.0,2.0,92,0.00,,,0.00,,2013-07-07 08:44:00,
2013-07-07 04:53:00,70.0,67.0,-100.00,NNE,18,1.0,2.0,92,0.00,,,0.00,,2013-07-07 08:53:00,
2013-07-07 05:02:00,69.0,67.0,-100.00,NW,316,1.0,2.0,93,0.00,,,0.00,,2013-07-07 09:02:00,
2013-07-07 05:12:00,69.0,67.0,-100.00,NW,316,1.0,2.0,93,0.00,,,0.00,,2013-07-07 09:12:00,
2013-07-07 05:34:00,69.0,67.0,-100.00,NW,305,1.0,2.0,93,0.00,,,0.00,,2013-07-07 09:34:00,
2013-07-07 05:43:00,69.0,67.0,-100.00,NW,323,1.0,3.0,93,0.00,,,0.00,,2013-07-07 09:43:00,
2013-07-07 05:53:00,69.0,67.0,-100.00,NW,323,1.0,3.0,93,0.00,,,0.00,,2013-07-07 09:53:00,
2013-07-07 06:03:00,69.0,67.0,-100.00,NNE,32,0.0,2.0,93,0.00,,,0.00,,2013-07-07 10:03:00,
2013-07-07 06:12:00,69.0,67.0,-100.00,NNE,32,0.0,2.0,93,0.00,,,0.00,,2013-07-07 10:12:00,
2013-07-07 06:32:00,69.0,67.0,-100.00,North,359,1.0,4.0,93,0.00,,,0.00,,2013-07-07 10:32:00,
2013-07-07 06:43:00,69.0,67.0,-100.00,NNE,30,0.0,2.0,93,0.00,,,0.00,,2013-07-07 10:43:00,
2013-07-07 06:52:00,69.0,67.0,-100.00,NNE,30,0.0,2.0,93,0.00,,,0.00,,2013-07-07 10:52:00,
2013-07-07 07:02:00,69.0,67.0,-100.00,SE,124,1.0,2.0,94,0.00,,,0.00,,2013-07-07 11:02:00,
2013-07-07 07:12:00,69.0,67.0,-100.00,SE,124,1.0,2.0,94,0.00,,,0.00,,2013-07-07 11:12:00,
2013-07-07 07:34:00,69.0,67.0,-100.00,NE,40,1.0,3.0,94,0.00,,,0.00,,2013-07-07 11:34:00,
2013-07-07 07:43:00,70.0,68.0,-100.00,North,354,0.0,2.0,93,0.00,,,0.00,,2013-07-07 11:43:00,
2013-07-07 07:53:00,70.0,68.0,-100.00,North,354,0.0,2.0,93,0.00,,,0.00,,2013-07-07 11:53:00,
2013-07-07 08:02:00,70.0,68.0,-100.00,NE,41,2.0,4.0,92,0.00,,,0.00,,2013-07-07 12:02:00,
2013-07-07 08:12:00,70.0,68.0,-100.00,NE,41,2.0,4.0,92,0.00,,,0.00,,2013-07-07 12:12:00,
2013-07-07 08:34:00,72.0,69.0,-100.00,SSW,205,2.0,4.0,91,0.00,,,0.00,,2013-07-07 12:34:00,
2013-07-07 08:43:00,74.0,70.0,-100.00,SW,220,2.0,4.0,87,0.00,,,0.00,,2013-07-07 12:43:00,
2013-07-07 08:52:00,74.0,70.0,-100.00,SW,220,2.0,4.0,87,0.00,,,0.00,,2013-07-07 12:52:00,
2013-07-07 09:03:00,77.0,70.0,-100.00,WNW,282,0.0,2.0,79,0.00,,,0.00,,2013-07-07 13:03:00,
2013-07-07 09:12:00,77.0,70.0,-100.00,WNW,282,0.0,2.0,79,0.00,,,0.00,,2013-07-07 13:12:00,
2013-07-07 09:34:00,79.0,71.0,-100.00,NE,40,1.0,5.0,75,0.00,,,0.00,,2013-07-07 13:34:00,
2013-07-07 09:43:00,78.0,69.0,-100.00,SE,144,3.0,7.0,75,0.00,,,0.00,,2013-07-07 13:43:00,
2013-07-07 09:52:00,78.0,69.0,-100.00,SE,144,3.0,7.0,75,0.00,,,0.00,,2013-07-07 13:52:00,
2013-07-07 10:02:00,79.0,69.0,-100.00,South,188,2.0,6.0,74,0.00,,,0.00,,2013-07-07 14:02:00,
2013-07-07 10:12:00,79.0,69.0,-100.00,South,188,2.0,6.0,74,0.00,,,0.00,,2013-07-07 14:12:00,
2013-07-07 10:34:00,80.0,70.0,-100.00,West,280,1.0,4.0,73,0.00,,,0.00,,2013-07-07 14:34:00,
2013-07-07 10:43:00,-999.0,69.0,-100.00,WSW,237,2.0,5.0,65,0.00,,,0.00,,2013-07-07 14:43:00,
2013-07-07 10:53:00,-999.0,69.0,-100.00,WSW,237,2.0,5.0,65,0.00,,,0.00,,2013-07-07 14:53:00,
2013-07-07 11:02:00,81.0,71.0,-100.00,SSW,199,3.0,6.0,70,0.00,,,0.00,,2013-07-07 15:02:00,
2013-07-07 11:12:00,81.0,71.0,-100.00,SSW,199,3.0,6.0,70,0.00,,,0.00,,2013-07-07 15:12:00,
2013-07-07 11:34:00,80.0,70.0,-100.00,SW,220,2.0,6.0,71,0.00,,,0.00,,2013-07-07 15:34:00,
2013-07-07 11:43:00,81.0,70.0,-100.00,SSW,210,3.0,6.0,69,0.00,,,0.00,,2013-07-07 15:43:00,
2013-07-07 11:52:00,81.0,70.0,-100.00,SSW,210,3.0,6.0,69,0.00,,,0.00,,2013-07-07 15:52:00,
2013-07-07 12:02:00,81.0,70.0,-100.00,SW,236,2.0,5.0,69,0.00,,,0.00,,2013-07-07 16:02:00,
2013-07-07 12:11:00,81.0,70.0,-100.00,SW,236,2.0,5.0,69,0.00,,,0.00,,2013-07-07 16:11:00,
2013-07-07 12:34:00,86.0,71.0,-100.00,East,93,2.0,7.0,61,0.00,,,0.00,,2013-07-07 16:34:00,
2013-07-07 12:43:00,85.0,70.0,-100.00,SSE,158,2.0,6.0,61,0.00,,,0.00,,2013-07-07 16:43:00,
2013-07-07 12:53:00,85.0,70.0,-100.00,SSE,158,2.0,6.0,61,0.00,,,0.00,,2013-07-07 16:53:00,
2013-07-07 13:02:00,85.0,72.0,-100.00,East,79,3.0,7.0,65,0.00,,,0.00,,2013-07-07 17:02:00,
2013-07-07 13:12:00,85.0,72.0,-100.00,East,79,3.0,7.0,65,0.00,,,0.00,,2013-07-07 17:12:00,
2013-07-07 13:22:00,85.0,72.0,-100.00,East,79,3.0,7.0,65,0.00,,,0.00,,2013-07-07 17:22:00,
2013-07-07 13:34:00,86.0,70.0,-100.00,SE,130,3.0,7.0,59,0.00,,,0.00,,2013-07-07 17:34:00,
2013-07-07 13:43:00,86.0,71.0,-100.00,ENE,78,6.0,10.0,61,0.00,,,0.00,,2013-07-07 17:43:00,
2013-07-07 13:53:00,86.0,71.0,-100.00,ENE,78,6.0,10.0,61,0.00,,,0.00,,2013-07-07 17:53:00,
2013-07-07 14:02:00,87.0,72.0,-100.00,ESE,110,3.0,7.0,61,0.00,,,0.00,,2013-07-07 18:02:00,
2013-07-07 14:12:00,87.0,72.0,-100.00,ESE,110,3.0,7.0,61,0.00,,,0.00,,2013-07-07 18:12:00,
2013-07-07 14:22:00,87.0,70.0,-100.00,ESE,113,4.0,8.0,58,0.00,,,0.00,,2013-07-07 18:22:00,
2013-07-07 14:33:00,87.0,70.0,-100.00,ESE,113,4.0,8.0,58,0.00,,,0.00,,2013-07-07 18:33:00,
2013-07-07 14:43:00,84.0,71.0,-100.00,East,92,4.0,8.0,65,0.00,,,0.00,,2013-07-07 18:43:00,
2013-07-07 14:53:00,84.0,71.0,-100.00,East,92,4.0,8.0,65,0.00,,,0.00,,2013-07-07 18:53:00,
2013-07-07 15:01:00,81.0,73.0,-100.00,NE,42,2.0,6.0,78,0.03,,,0.02,,2013-07-07 19:01:00,
2013-07-07 15:11:00,81.0,73.0,-100.00,NE,42,2.0,6.0,78,0.03,,,0.02,,2013-07-07 19:11:00,
2013-07-07 15:34:00,82.0,73.0,-100.00,NNE,23,3.0,6.0,74,0.00,,,0.02,,2013-07-07 19:34:00,
2013-07-07 15:43:00,82.0,73.0,-100.00,NNE,23,3.0,6.0,74,0.00,,,0.02,,2013-07-07 19:43:00,
2013-07-07 15:54:00,83.0,72.0,-100.00,SW,215,4.0,10.0,70,0.00,,,0.02,,2013-07-07 19:54:00,
2013-07-07 16:02:00,82.0,72.0,-100.00,SE,131,3.0,8.0,71,0.00,,,0.02,,2013-07-07 20:02:00,
2013-07-07 16:11:00,82.0,72.0,-100.00,SE,131,3.0,8.0,71,0.00,,,0.02,,2013-07-07 20:11:00,
2013-07-07 16:22:00,-999.0,72.0,-100.00,SSW,208,2.0,5.0,71,0.00,,,0.02,,2013-07-07 20:22:00,
2013-07-07 16:34:00,-999.0,72.0,-100.00,SSW,208,2.0,5.0,71,0.00,,,0.02,,2013-07-07 20:34:00,
2013-07-07 16:42:00,-999.0,72.0,-100.00,SSW,208,2.0,5.0,71,0.00,,,0.02,,2013-07-07 20:42:00,
2013-07-07 16:53:00,76.0,64.0,-100.00,SSW,193,9.0,19.0,67,0.00,,,0.02,,2013-07-07 20:53:00,
2013-07-07 17:12:00,71.0,66.0,-100.00,South,186,6.0,12.0,83,0.54,,,0.05,,2013-07-07 21:12:00,
2013-07-07 17:22:00,69.0,67.0,-100.00,ESE,113,2.0,5.0,92,0.33,,,0.17,,2013-07-07 21:22:00,
2013-07-07 17:34:00,69.0,67.0,-100.00,ESE,113,2.0,5.0,92,0.33,,,0.17,,2013-07-07 21:34:00,
2013-07-07 17:44:00,70.0,67.0,-100.00,ENE,58,3.0,5.0,93,0.00,,,0.17,,2013-07-07 21:44:00,
2013-07-07 17:53:00,70.0,67.0,-100.00,ENE,58,3.0,5.0,93,0.00,,,0.17,,2013-07-07 21:53:00,
2013-07-07 18:02:00,71.0,69.0,-100.00,SSW,202,2.0,5.0,93,0.00,,,0.17,,2013-07-07 22:02:00,
2013-07-07 18:11:00,71.0,69.0,-100.00,SSW,202,2.0,5.0,93,0.00,,,0.17,,2013-07-07 22:11:00,
2013-07-07 18:34:00,71.0,69.0,-100.00,WSW,244,1.0,4.0,92,0.00,,,0.17,,2013-07-07 22:34:00,
2013-07-07 18:44:00,71.0,69.0,-100.00,SSW,206,2.0,4.0,92,0.00,,,0.17,,2013-07-07 22:44:00,
2013-07-07 18:54:00,71.0,69.0,-100.00,SSW,206,2.0,4.0,92,0.00,,,0.17,,2013-07-07 22:54:00,
2013-07-07 19:02:00,71.0,68.0,-100.00,SSE,158,2.0,3.0,92,0.00,,,0.17,,2013-07-07 23:02:00,
2013-07-07 19:12:00,71.0,68.0,-100.00,SSE,158,2.0,3.0,92,0.00,,,0.17,,2013-07-07 23:12:00,
2013-07-07 19:33:00,71.0,68.0,-100.00,South,188,2.0,4.0,92,0.00,,,0.17,,2013-07-07 23:33:00,
2013-07-07 19:43:00,71.0,68.0,-100.00,SW,233,1.0,3.0,92,0.00,,,0.17,,2013-07-07 23:43:00,
2013-07-07 19:53:00,71.0,68.0,-100.00,SW,233,1.0,3.0,92,0.00,,,0.17,,2013-07-07 23:53:00,
2013-07-07 20:02:00,71.0,68.0,-100.00,SSW,192,1.0,4.0,93,0.03,,,0.17,,2013-07-08 00:02:00,
2013-07-07 20:12:00,71.0,68.0,-100.00,SSW,192,1.0,4.0,93,0.03,,,0.17,,2013-07-08 00:12:00,
2013-07-07 20:33:00,71.0,68.0,-100.00,South,189,2.0,5.0,93,0.01,,,0.18,,2013-07-08 00:33:00,
2013-07-07 20:43:00,71.0,68.0,-100.00,SSW,203,2.0,5.0,93,0.00,,,0.19,,2013-07-08 00:43:00,
2013-07-07 20:53:00,71.0,68.0,-100.00,SSW,203,2.0,5.0,93,0.00,,,0.19,,2013-07-08 00:53:00,
2013-07-07 21:01:00,70.0,68.0,-100.00,SW,219,2.0,5.0,93,0.01,,,0.19,,2013-07-08 01:01:00,
2013-07-07 21:11:00,70.0,68.0,-100.00,SW,219,2.0,5.0,93,0.01,,,0.19,,2013-07-08 01:11:00,
2013-07-07 21:22:00,70.0,68.0,-100.00,SW,219,2.0,5.0,93,0.01,,,0.19,,2013-07-08 01:22:00,
2013-07-07 21:43:00,69.0,68.0,-100.00,NW,315,0.0,1.0,94,0.04,,,0.22,,2013-07-08 01:43:00,
2013-07-07 21:53:00,69.0,68.0,-100.00,NW,315,0.0,1.0,94,0.04,,,0.22,,2013-07-08 01:53:00,
2013-07-07 22:03:00,69.0,67.0,-100.00,NW,325,0.0,1.0,94,0.00,,,0.23,,2013-07-08 02:03:00,
2013-07-07 22:11:00,69.0,67.0,-100.00,NW,325,0.0,1.0,94,0.00,,,0.23,,2013-07-08 02:11:00,
2013-07-07 22:22:00,69.0,67.0,-100.00,NW,325,0.0,1.0,94,0.00,,,0.23,,2013-07-08 02:22:00,
2013-07-07 22:33:00,69.0,67.0,-100.00,North,11,1.0,3.0,94,0.00,,,0.23,,2013-07-08 02:33:00,
2013-07-07 22:42:00,69.0,67.0,-100.00,North,11,1.0,3.0,94,0.00,,,0.23,,2013-07-08 02:42:00,
2013-07-07 23:02:00,69.0,67.0,-100.00,WSW,237,1.0,2.0,94,0.00,,,0.23,,2013-07-08 03:02:00,
2013-07-07 23:12:00,69.0,67.0,-100.00,WSW,237,1.0,2.0,94,0.00,,,0.23,,2013-07-08 03:12:00,
2013-07-07 23:23:00,69.0,67.0,-100.00,WSW,237,1.0,2.0,94,0.00,,,0.23,,2013-07-08 03:23:00,
2013-07-07 23:34:00,69.0,67.0,-100.00,SW,220,1.0,3.0,94,0.00,,,0.23,,2013-07-08 03:34:00,
2013-07-07 23:42:00,69.0,67.0,-100.00,SW,223,2.0,3.0,94,0.00,,,0.23,,2013-07-08 03:42:00,
2013-07-07 23:52:00,69.0,67.0,-100.00,SW,223,2.0,3.0,94,0.00,,,0.23,,2013-07-08 03:52:00,